Overview Statistics Trail Chart Weather Telemetry Raw packets
 

This is the latest recevied weather packets stored in our database for station/object N0KWA. If no packets are shown the sender has not sent any weather packets the latest 10 day(s).

<< 24 25 26 27 28 29 30 >>
Time Temp. Humidity Pressure Rain* Wind** Luminosity Snow
1788280148 30° C 86% 1019.9 hPa 0 mm - 57 W/m² -
1788279848 30° C 85% 1020 hPa 0 mm - 39 W/m² -
1788279548 30° C 85% 1020 hPa 0 mm - 32 W/m² -
1788279247 30° C 85% 1019.9 hPa 0 mm - 48 W/m² -
1788278942 30.56° C 84% 1019.8 hPa 0 mm - 30 W/m² -
1788278639 30.56° C 82% 1019.8 hPa 0 mm - 23 W/m² -
1788278338 30.56° C 83% 1019.8 hPa 0 mm - 18 W/m² -
1788278032 30.56° C 85% 1019.9 hPa 0 mm - 44 W/m² -
1788277729 30° C 85% 1019.8 hPa 0 mm - 143 W/m² -
1788277428 30° C 86% 1019.9 hPa 0 mm - 33 W/m² -
1788277123 30° C 87% 1019.8 hPa 0 mm - 31 W/m² -
1788276818 30° C 88% 1019.7 hPa 0 mm - 35 W/m² -
1788276516 29.44° C 87% 1019.7 hPa 0 mm - 20 W/m² -
1788276216 29.44° C 88% 1019.7 hPa 0 mm - 40 W/m² -
1788275906 29.44° C 88% 1019.6 hPa 0 mm - 18 W/m² -
1788275606 29.44° C 89% 1019.6 hPa 0 mm - 19 W/m² -
1788275299 29.44° C 89% 1019.8 hPa 0 mm - 26 W/m² -
1788274997 28.89° C 91% 1019.7 hPa 0 mm - 31 W/m² -
1788274696 28.89° C 93% 1019.5 hPa 0 mm - 24 W/m² -
1788274395 28.89° C 93% 1019.7 hPa 0 mm - 35 W/m² -
1788274090 28.89° C 94% 1019.8 hPa 0 mm - 19 W/m² -
1788273781 28.89° C 94% 1019.8 hPa 0 mm - 11 W/m² -
1788273476 28.89° C 97% 1019.9 hPa 0 mm - 26 W/m² -
1788273173 28.33° C 96% 1019.9 hPa 0 mm - 25 W/m² -
1788272869 27.78° C 97% 1019.8 hPa 0 mm - 14 W/m² -

* Rain latest hour (hover to see other rain measurements)
** Current wind speed in m/s (hover to see current wind gust speed)